Location: Kershaw
(34.5481°N, 80.5823°W)
Time: 16:03:56
(UTC+00:00)

Transit 2A - Pass Details

Date: 12 October 2022
Orbit: 598 x 959 km, 66.7° (Epoch: 06 December)

Event Time Altitude Azimuth Distance (km) Brightness Sun altitude
Rises 10:54:38 0° 338° (NNW) 3,031 8.8 -7.1°
Reaches altitude 10° 10:56:54 10° 343° (NNW) 2,162 8.1 -6.7°
Maximum altitude 11:01:45 57° 62° (ENE) 885 6.7 -5.7°
Drops below altitude 10° 11:07:06 10° 140° (SE) 2,387 9.3 -4.6°
Sets 11:09:42 0° 145° (SE) 3,375 10.0 -4.1°
